Weather Roundup
Issued by NWS

Home | Current Version | Previous Version | Text Only | Print | Product List | Glossary On
Versions: 1 2 3 4 5 6 7 8 9 10 11 12 13 14 15 16 17 18 19 20 21 22 23 24 25 26 27 28 29 30 31 32 33 34 35 36 37 38 39 40 41 42 43 44 45 46 47 48 49 50
000
NZUS99 KDVN 170110
HRRCWA
HOURLY WEATHER ROUNDUP
NATIONAL WEATHER SERVICE QUAD CITIES IA IL
800 PM CDT MON JUL 16 2018

Note: "Fair" indicates few or no clouds below 12,000 feet with
no significant weather and/or obstructions to visibility.

* - These stations are not NWS stations and are not subject to NWS
quality control.  Some stations do not report weather such as fog
and some only report TMP and DP in whole degrees Celsius, which are
then converted to Fahrenheit.

...NORTHEAST IOWA..................................................

CITY           SKY/WX    TMP DP  RH WIND       PRES   REMARKS
DECORAH *      FAIR      77  63  61 CALM      30.01S
DUBUQUE        FAIR      75  59  57 NW8       30.02R
INDEPENDENCE *   N/A     75  63  66 CALM      30.02S
OELWEIN *      FAIR      75  66  73 CALM      30.03S
WATERLOO       FAIR      77  63  61 NW3       30.01S

...SOUTHWEST AND SOUTH CENTRAL WISCONSIN...........................

CITY           SKY/WX    TMP DP  RH WIND       PRES   REMARKS
BOSCOBEL       FAIR      80  61  52 NW3       29.99S HX  81
JANESVILLE *   CLEAR     77  61  57 NW6       29.96S
LONE ROCK      FAIR      78  60  53 NW6       29.98S
MINERAL POINT* FAIR      77  61  57 NW3       30.01S
MONROE *       FAIR      76  56  50 NW3       29.98S
PRAIRIE DU CHI FAIR      77  58  50 NW6       29.99S

...EAST CENTRAL IOWA...............................................

CITY           SKY/WX    TMP DP  RH WIND       PRES   REMARKS
CEDAR RAPIDS   FAIR      77  62  59 NW6       30.01R
CLINTON *      FAIR      75  66  73 NW5       30.00R
DAVENPORT      FAIR      75  57  53 N6        30.01R
IOWA CITY      FAIR      81  60  48 N7        30.01S HX  82
MARSHALLTOWN   CLEAR     78  67  68 N3        30.03S HX  80
MONTICELLO *   FAIR      77  64  65 N5        30.00S
MUSCATINE *    FAIR      79  63  57 N7        29.99S HX  80
NEWTON *       CLEAR     77  63  61 N6        30.03S
VINTON *       FAIR      80  61  53 CALM      30.02S HX  81

...NORTHWEST ILLINOIS..............................................

CITY           SKY/WX    TMP DP  RH WIND       PRES   REMARKS
FREEPORT *     FAIR      73  60  63 NW6       29.99S
MOLINE         FAIR      81  55  40 NW8       29.98R HX  81
PERU *         FAIR      80  67  64 N7        29.97R HX  83
ROCHELLE *     FAIR      76  61  59 N7        29.98R
ROCKFORD       FAIR      78  58  49 N9        29.97R
SAVANNA *      FAIR      79  61  53 NW7       29.98S HX  80
STERLING/R.F.* FAIR      78  63  59 NW6       29.98R HX  80

...SOUTHEAST IOWA AND NORTHEAST MISSOURI...........................

CITY           SKY/WX    TMP DP  RH WIND       PRES   REMARKS
BURLINGTON     CLEAR     80  65  59 N7        29.99R HX  82
FAIRFIELD *    CLEAR     77  63  61 N6        30.01R
FORT MADISON * CLEAR     79  68  69 NW3       30.01R HX  81
KEOKUK *       CLEAR     81  66  61 N5        29.99R HX  83
KIRKSVILLE     CLEAR     83  70  64 N8        30.01R HX  87
MT PLEASANT *  CLEAR     77  61  57 N6        30.00S
OTTUMWA        CLEAR     80  64  58 N6        30.01S HX  82
WASHINGTON *   CLEAR     79  64  61 N7        30.02R HX  81

...WESTERN ILLINOIS................................................

CITY           SKY/WX    TMP DP  RH WIND       PRES   REMARKS
GALESBURG *    FAIR      78  63  61 W6        30.00R
MACOMB *       CLEAR     79  68  69 N5        30.00R HX  81
PEORIA         FAIR      82  69  64 N8        29.97R HX  85
QUINCY         CLEAR     84  70  62 N7        29.98R HX  88

END...




USA.gov is the U.S. government's official web portal to all federal, state and local government web resources and services.